Regional Weather Roundup
Issued by NWS

Home | Current Version | Previous Version | Graphics & Text | Print | Product List | Glossary On
Versions: 1 2 3 4 5 6 7 8 9 10 11 12 13 14 15 16 17 18 19 20 21 22 23 24 25 26 27 28 29 30 31 32 33 34 35 36 37 38 39 40 41 42 43 44 45 46 47 48 49 50
000
ASUS43 KTOP 121259
RWRKS

WEATHER ROUNDUP FOR KANSAS
NATIONAL WEATHER SERVICE GOODLAND KS
800 AM CDT SAT JUL 12 2014

NOTE:  "FAIR" INDICATES FEW OR NO CLOUDS BELOW 12,000 FEET WITH NO
SIGNIFICANT WEATHER AND/OR OBSTRUCTIONS TO VISIBILITY.

KSZ001>006-013>018-027>032-041>047-121400-
NORTHWEST KANSAS

CITY           SKY/WX    TMP DP  RH WIND       PRES   REMARKS
GOODLAND       PTSUNNY   67  64  90 NW8       30.09R
HAYS           SUNNY     73  57  56 S3        30.04S
HILL CITY      MOSUNNY   75  61  61 SW7       30.02S
RUSSELL          N/A     75  64  68 S15       30.01F
$$

KSZ061>065-074>080-084>089-121400-
SOUTHWEST KANSAS

CITY           SKY/WX    TMP DP  RH WIND       PRES   REMARKS
DODGE CITY     SUNNY     72  62  71 S12       30.09R
ELKHART          N/A     71  58  63 SW13        N/A
GARDEN CITY    SUNNY     71  61  70 SW12      30.08R
GREAT BEND     SUNNY     73  63  68 S12       30.05S
LIBERAL        SUNNY     73  61  64 S15       30.13S
$$

KSZ066>073-081>083-090>101-121400-
SOUTHEAST KANSAS

CITY           SKY/WX    TMP DP  RH WIND       PRES   REMARKS
CHANUTE        SUNNY     76  66  71 S12       30.10S
COFFEYVILLE    SUNNY     76  68  76 S10       30.10S HAZE
HUTCHINSON     SUNNY     75  64  68 S8        30.07R
MEDICINE LODGE   N/A     73  64  73 S6        30.08R
NEWTON         SUNNY     75  61  60 SW14      30.11R
PARSONS        SUNNY     75  67  76 S8        30.11S
WICHITA INTL   MOSUNNY   74  64  71 S8        30.08R
WICHITA JABRA  SUNNY     75  64  68 S15       30.08S
WINFIELD       SUNNY     77  65  66 S13       30.10R
$$

KSZ007>012-019>026-033>040-048>060-102>105-121400-
NORTHEAST KANSAS

CITY           SKY/WX    TMP DP  RH WIND       PRES   REMARKS
CONCORDIA      MOSUNNY   75  64  68 S12       30.01R
EMPORIA        SUNNY     78  64  61 S15       30.06S
LAWRENCE       MOSUNNY   78  68  71 S6        30.05F
MANHATTAN      SUNNY     78  64  61 SW12      30.02F
OLATHE IND     SUNNY     77  67  71 S13       30.07F
OLATHE EXE     SUNNY     75  68  78 SW7       30.06F
SALINA         SUNNY     77  64  64 S10       30.03S
TOPEKA BILLARD MOSUNNY   79  66  64 SW8       30.04S
TOPEKA FORBES  MOSUNNY   76  66  71 S9        30.04F
$$


USA.gov is the U.S. government's official web portal to all federal, state and local government web resources and services.